KI5NYZ Weather Reports


Display with metric or nautical units.
time (UTC)temp
F
wind
direction
speed
MPH
gust
MPH
rain 1hr
in
rain 24hr
in
rain mn
in
humidity
%
barometer
mb
20260831030023 84 178 2.0 5.0 0.00 0.34 0.34 39 1015.1
20260831025022 84 177 2.0 5.0 0.00 0.34 0.34 38 1015.0
20260831024025 84 181 1.0 4.0 0.00 0.34 0.34 38 1014.9
20260831023023 84 199 0.0 4.0 0.00 0.34 0.34 37 1014.8
20260831022023 85 161 0.0 3.0 0.00 0.34 0.34 36 1014.7
20260831021025 86 187 0.0 3.0 0.00 0.34 0.34 36 1014.6
20260831020023 86 145 0.0 2.0 0.00 0.34 0.34 35 1014.5
20260831015023 87 189 1.0 4.0 0.00 0.34 0.34 34 1014.4
20260831014020 88 194 0.0 3.0 0.00 0.34 0.34 34 1014.3
20260831013025 89 187 1.0 3.0 0.00 0.34 0.34 33 1014.2
20260831012019 90 173 1.0 5.0 0.00 0.34 0.34 32 1014.2
20260831011019 92 171 1.0 6.0 0.00 0.34 0.34 31 1014.1
20260831010022 93 179 1.0 4.0 0.01 0.34 0.34 29 1014.1
20260831005026 94 177 1.0 6.0 0.01 0.34 0.34 28 1014.0
20260831004103 96 172 2.0 5.0 0.01 0.34 0.34 27 1013.9
20260831003020 96 181 1.0 4.0 0.02 0.34 0.34 26 1013.9
20260831002020 96 129 1.0 5.0 0.02 0.34 0.34 26 1013.9
20260831001024 96 174 3.0 8.0 0.02 0.34 0.33 25 1013.9
20260831000023 97 169 2.0 6.0 0.02 0.33 0.33 26 1013.8
20260830235045 98 185 4.0 9.0 0.02 0.33 0.33 24 1013.9
20260830234022 98 167 2.0 7.0 0.02 0.33 0.32 24 1013.9
20260830233042 98 187 2.0 8.0 0.02 0.33 0.32 24 1013.8
20260830232024 98 183 3.0 8.0 0.03 0.33 0.32 24 1013.8
20260830231043 98 178 1.0 6.0 0.02 0.33 0.31 24 1013.9
20260830230023 98 187 5.0 10.0 0.02 0.33 0.31 23 1013.8
20260830225027 98 179 2.0 7.0 0.02 0.33 0.30 23 1013.8
20260830224020 98 185 4.0 9.0 0.03 0.33 0.30 24 1013.9
20260830223028 99 175 2.0 9.0 0.02 0.32 0.29 24 1013.9
20260830222039 99 160 2.0 8.0 0.02 0.32 0.29 24 1013.9
20260830221018 99 179 3.0 9.0 0.03 0.32 0.29 24 1014.0
20260830220024 99 181 3.0 9.0 0.03 0.32 0.28 24 1014.2
20260830215020 99 180 4.0 9.0 0.03 0.33 0.28 25 1014.2
20260830214021 99 184 4.0 9.0 0.03 0.33 0.27 25 1014.4
20260830213019 98 131 2.0 6.0 0.03 0.33 0.27 26 1014.5
20260830212020 98 196 3.0 9.0 0.04 0.32 0.26 26 1014.7
20260830211022 98 185 2.0 6.0 0.04 0.32 0.26 27 1014.9
20260830210104 98 188 3.0 10.0 0.05 0.32 0.26 27 1014.9
20260830205023 97 193 3.0 7.0 0.05 0.32 0.25 27 1015.0
20260830204024 97 190 5.0 11.0 0.05 0.32 0.25 28 1015.2
20260830203103 97 183 4.0 11.0 0.05 0.32 0.24 27 1015.3
20260830202026 97 180 3.0 9.0 0.06 0.32 0.23 27 1015.5
20260830201021 96 188 4.0 10.0 0.06 0.33 0.22 28 1015.7
20260830200045 96 184 5.0 10.0 0.05 0.32 0.21 28 1015.9
20260830195025 97 184 3.0 7.0 0.05 0.31 0.20 27 1016.0
20260830194023 96 185 2.0 9.0 0.06 0.31 0.20 28 1016.1
20260830193019 96 180 5.0 10.0 0.06 0.31 0.19 29 1016.2
20260830192020 96 190 5.0 9.0 0.05 0.30 0.17 29 1016.3
20260830191018 95 179 4.0 11.0 0.05 0.30 0.16 30 1016.4
20260830190024 95 196 5.0 11.0 0.05 0.30 0.16 30 1016.4
20260830185020 95 184 5.0 11.0 0.06 0.30 0.15 30 1016.6
20260830184019 94 177 4.0 9.0 0.05 0.29 0.14 31 1016.6
20260830183022 95 190 5.0 14.0 0.05 0.28 0.13 30 1016.8
20260830182021 95 178 4.0 9.0 0.04 0.27 0.12 31 1016.9
20260830181022 94 192 3.0 10.0 0.04 0.27 0.11 32 1017.1
20260830180020 93 199 4.0 9.0 0.04 0.27 0.10 32 1017.2
20260830175023 93 187 4.0 11.0 0.04 0.26 0.09 34 1017.3
20260830174020 93 220 4.0 8.0 0.04 0.25 0.09 35 1017.5
20260830173103 91 197 4.0 9.0 0.04 0.25 0.08 37 1017.6
20260830172021 91 211 4.0 10.0 0.05 0.25 0.08 38 1017.7
20260830171020 91 201 3.0 8.0 0.05 0.25 0.08 38 1017.8
20260830170024 90 193 4.0 11.0 0.04 0.25 0.07 41 1017.9
20260830165027 89 186 4.0 10.0 0.03 0.24 0.05 42 1018.0
20260830164022 89 190 4.0 9.0 0.03 0.23 0.05 43 1018.1
20260830163023 88 193 4.0 8.0 0.02 0.23 0.04 44 1018.1
20260830162025 88 180 4.0 11.0 0.01 0.24 0.03 45 1018.1
20260830161020 87 207 4.0 10.0 0.01 0.24 0.03 46 1018.1
20260830160101 86 201 4.0 8.0 0.01 0.25 0.03 47 1018.1
20260830155019 85 216 3.0 6.0 0.02 0.25 0.02 48 1018.2
20260830154020 85 210 2.0 6.0 0.02 0.25 0.02 49 1018.2
20260830153020 84 209 3.0 8.0 0.02 0.25 0.02 50 1018.2
20260830152020 83 213 3.0 8.0 0.02 0.25 0.02 51 1018.3
20260830151020 82 204 3.0 8.0 0.02 0.25 0.02 53 1018.3
20260830150021 81 209 4.0 9.0 0.01 0.24 0.01 54 1018.2
20260830145020 81 202 4.0 9.0 0.00 0.23 0.00 55 1018.2
20260830144021 80 204 2.0 8.0 0.00 0.23 0.00 57 1018.2
20260830143025 78 225 3.0 8.0 0.00 0.23 0.00 58 1018.3
20260830142023 77 217 3.0 6.0 0.00 0.23 0.00 60 1018.3
20260830141022 77 216 2.0 7.0 0.00 0.23 0.00 61 1018.4
20260830140019 75 190 1.0 4.0 0.00 0.23 0.00 62 1018.3
20260830135020 74 188 2.0 5.0 0.00 0.23 0.00 65 1018.3
20260830134044 72 192 0.0 3.0 0.00 0.23 0.00 68 1018.3
20260830133024 71 224 2.0 4.0 0.00 0.23 0.00 71 1018.2
20260830132023 70 222 0.0 2.0 0.00 0.23 0.00 72 1018.2
20260830131021 69 211 0.0 4.0 0.00 0.23 0.00 73 1018.0
20260830130024 68 196 0.0 2.0 0.00 0.23 0.00 75 1017.9
20260830125023 67 239 0.0 2.0 0.00 0.23 0.00 76 1017.8
20260830124021 67 280 0.0 2.0 0.00 0.23 0.00 78 1017.6
20260830123024 68 260 0.0 2.0 0.00 0.23 0.00 76 1017.5
20260830122019 68 197 0.0 2.0 0.00 0.23 0.00 74 1017.4
20260830121019 68 195 1.0 3.0 0.00 0.23 0.00 73 1017.3
20260830120020 68 198 0.0 3.0 0.00 0.23 0.00 74 1017.3
20260830115019 68 236 0.0 2.0 0.00 0.23 0.00 74 1017.1
20260830114022 69 0 0.0 0.0 0.00 0.23 0.00 72 1017.1
20260830113025 69 221 0.0 3.0 0.00 0.23 0.00 71 1017.0
20260830112020 68 216 1.0 9.0 0.00 0.23 0.00 72 1016.9
20260830111042 68 241 0.0 1.0 0.00 0.23 0.00 73 1016.9
20260830110025 68 243 1.0 2.0 0.00 0.23 0.00 73 1016.9
20260830105022 69 247 0.0 1.0 0.00 0.23 0.00 71 1016.9
20260830104044 69 221 1.0 2.0 0.00 0.23 0.00 70 1016.7
20260830103045 70 206 0.0 1.0 0.00 0.23 0.00 69 1016.7
20260830102021 70 233 1.0 3.0 0.00 0.23 0.00 69 1016.8
20260830101025 70 242 2.0 6.0 0.00 0.23 0.00 68 1016.7
20260830100042 70 265 1.0 4.0 0.00 0.23 0.00 69 1016.7
20260830095024 71 260 1.0 3.0 0.00 0.23 0.00 66 1016.7
20260830094044 72 208 1.0 3.0 0.00 0.23 0.00 63 1016.6
20260830093020 72 212 2.0 8.0 0.00 0.23 0.00 62 1016.6
20260830092022 72 205 2.0 4.0 0.00 0.23 0.00 63 1016.5
20260830091021 72 201 2.0 5.0 0.00 0.23 0.00 63 1016.5
20260830090023 72 209 1.0 3.0 0.00 0.23 0.00 63 1016.5
20260830085018 72 210 2.0 5.0 0.00 0.23 0.00 62 1016.4
20260830084020 72 202 2.0 4.0 0.00 0.23 0.00 62 1016.4
20260830083019 73 211 1.0 4.0 0.00 0.23 0.00 61 1016.4
20260830082025 73 201 2.0 4.0 0.00 0.23 0.00 60 1016.4
20260830081020 73 199 2.0 4.0 0.00 0.23 0.00 60 1016.5
20260830080040 73 206 2.0 5.0 0.00 0.23 0.00 61 1016.6
20260830075039 73 209 1.0 4.0 0.00 0.23 0.00 61 1016.6
20260830074129 74 241 2.0 4.0 0.00 0.23 0.00 60 1016.7
20260830073022 74 247 1.0 3.0 0.00 0.23 0.00 58 1016.8
20260830072023 75 204 0.0 3.0 0.00 0.23 0.00 56 1016.7
20260830071042 76 197 1.0 4.0 0.00 0.23 0.00 54 1016.8
20260830070048 76 194 1.0 5.0 0.00 0.23 0.00 53 1016.8
20260830065023 76 182 1.0 6.0 0.00 0.23 0.00 52 1017.0
20260830064045 76 186 2.0 4.0 0.00 0.23 0.00 53 1017.0
20260830063023 77 194 0.0 2.0 0.00 0.23 0.00 53 1016.8
20260830062200 78 199 1.0 3.0 0.00 0.23 0.00 50 1016.8
20260830061040 78 185 3.0 5.0 0.00 0.23 0.00 50 1016.8
20260830060027 79 191 2.0 4.0 0.00 0.23 0.00 48 1016.8
20260830055018 79 187 2.0 6.0 0.00 0.23 0.00 48 1016.8
20260830054019 79 188 2.0 4.0 0.00 0.23 0.00 48 1016.8
20260830053019 79 199 2.0 5.0 0.00 0.23 0.00 48 1016.8
20260830052022 79 207 2.0 5.0 0.00 0.23 0.00 47 1016.8
20260830051021 80 199 2.0 5.0 0.00 0.23 0.00 46 1016.8
20260830050026 80 198 2.0 4.0 0.00 0.23 0.00 46 1016.8
20260830045019 79 197 2.0 5.0 0.00 0.23 0.23 46 1016.8
20260830044022 79 194 2.0 5.0 0.00 0.23 0.23 46 1016.7
20260830043020 80 205 1.0 4.0 0.00 0.23 0.23 45 1016.8
20260830042024 80 207 2.0 5.0 0.00 0.23 0.23 44 1016.9
20260830041021 81 205 1.0 3.0 0.00 0.23 0.23 43 1016.9
20260830040023 82 203 2.0 4.0 0.00 0.23 0.23 42 1016.9
20260830035024 82 200 2.0 4.0 0.00 0.23 0.23 41 1016.9
20260830034022 83 200 2.0 4.0 0.00 0.23 0.23 40 1016.9
20260830033021 83 192 2.0 5.0 0.00 0.23 0.23 39 1016.9
20260830032043 83 190 1.0 3.0 0.00 0.23 0.23 39 1016.8
20260830031022 85 193 2.0 4.0 0.00 0.23 0.23 37 1016.6